Location: Anola
(49.8851°N, 96.6375°W)
Time: 11:55:22
(UTC-06:00)

N. Korean satellite - Visible Passes

Search period start: 25 February 2018 00:00
Search period end: 07 March 2018 00:00
Orbit: 459 x 514 km, 97.2° (Epoch: 24 February)

Date Brightness Start Highest point End Pass type
(mag) Time Alt. Az. Time Alt. Az. Time Alt. Az.
25 Feb 10.1 19:24:29 10° WSW 19:26:19 14° W 19:28:09 10° WNW visible
26 Feb 9.3 18:59:27 10° SSW 19:02:20 24° W 19:05:17 10° NW visible
27 Feb 9.8 06:21:44 10° NE 06:24:37 21° E 06:27:30 10° SE visible
27 Feb 7.9 18:35:05 10° S 18:38:27 44° W 18:41:53 10° NNW visible
28 Feb 10.5 05:59:06 10° ENE 06:00:38 12° E 06:02:11 10° ESE visible
01 Mar 10.1 19:22:45 10° WSW 19:24:44 14° W 19:26:42 10° NW visible
02 Mar 9.3 18:57:47 10° SSW 19:00:44 25° W 19:03:46 10° NW visible
03 Mar 9.9 06:20:11 10° NE 06:23:03 21° E 06:25:55 10° SE visible
04 Mar 10.5 05:57:35 10° ENE 05:59:04 12° E 06:00:31 10° ESE visible
05 Mar 10.0 19:21:00 10° SW 19:23:06 15° W 19:25:13 10° NW visible
06 Mar 9.2 18:56:05 10° SSW 18:59:06 26° W 19:02:13 10° NW visible
